• In Austria
  • List of Countries
  • For 7 days
  • Water Temperature
  • Satellite Maps
  • Weather Map
  • News
  • Weather Widgets
  • user-avatar
    Login

    Hourly Weather Batina

    Today, 25 September, Tuesday

    Time Temperature Precipitation Wind Pressure Humidity
    00:00 +22°C° 0 mm 1 mps 675 mmHg 58%
    01:00 +22°C° 0 mm 1 mps 675 mmHg 60%
    02:00 +21°C° 0 mm 1 mps 675 mmHg 62%
    03:00 +21°C° 0 mm 1 mps 675 mmHg 64%
    04:00 +21°C° 0 mm 1 mps 675 mmHg 65%
    05:00 +21°C° 0 mm 1 mps 675 mmHg 67%
    06:00 +21°C° 0 mm 1 mps 675 mmHg 65%
    07:00 +22°C° 0 mm 1 mps 676 mmHg 61%
    08:00 +23°C° 0 mm 1 mps 676 mmHg 57%
    09:00 +24°C° 0 mm 1 mps 677 mmHg 53%
    10:00 +25°C° 0 mm 2 mps 677 mmHg 49%
    11:00 +26°C° 0 mm 2 mps 677 mmHg 45%
    12:00 +27°C° 0 mm 2 mps 677 mmHg 40%
    13:00 +27°C° 0 mm 3 mps 677 mmHg 39%
    14:00 +27°C° 0 mm 3 mps 676 mmHg 38%
    15:00 +27°C° 0 mm 3 mps 676 mmHg 37%
    16:00 +26°C° 0.1 mm 3 mps 676 mmHg 40%
    17:00 +26°C° 0.1 mm 3 mps 676 mmHg 43%
    18:00 +25°C° 0.1 mm 3 mps 676 mmHg 46%
    19:00 +24°C° 0.3 mm 3 mps 676 mmHg 52%
    20:00 +22°C° 0.3 mm 3 mps 676 mmHg 57%
    21:00 +21°C° 0.3 mm 3 mps 676 mmHg 62%
    22:00 +21°C° 0.4 mm 2 mps 676 mmHg 64%
    23:00 +21°C° 0.4 mm 2 mps 676 mmHg 66%

    Tomorrow, 26 September, Wednesday

    Time Temperature Precipitation Wind Pressure Humidity
    00:00 +20°C° 0.4 mm 2 mps 676 mmHg 68%
    01:00 +20°C° 0.3 mm 2 mps 676 mmHg 69%
    02:00 +20°C° 0.3 mm 2 mps 676 mmHg 71%
    03:00 +19°C° 0.3 mm 2 mps 676 mmHg 73%
    04:00 +19°C° 0.3 mm 2 mps 676 mmHg 74%
    05:00 +19°C° 0.3 mm 2 mps 676 mmHg 76%
    06:00 +18°C° 0.3 mm 2 mps 676 mmHg 77%
    07:00 +19°C° 0.2 mm 2 mps 677 mmHg 72%
    08:00 +20°C° 0.2 mm 2 mps 677 mmHg 66%
    09:00 +21°C° 0.2 mm 2 mps 678 mmHg 61%
    10:00 +23°C° 0.2 mm 2 mps 678 mmHg 57%
    11:00 +24°C° 0.2 mm 2 mps 678 mmHg 52%
    12:00 +25°C° 0.2 mm 3 mps 678 mmHg 48%
    13:00 +25°C° 0.1 mm 3 mps 678 mmHg 46%
    14:00 +25°C° 0.1 mm 4 mps 678 mmHg 44%
    15:00 +25°C° 0.1 mm 5 mps 677 mmHg 42%
    16:00 +23°C° 0.2 mm 5 mps 677 mmHg 48%
    17:00 +22°C° 0.2 mm 5 mps 677 mmHg 54%
    18:00 +21°C° 0.2 mm 6 mps 677 mmHg 60%
    19:00 +21°C° 0 mm 6 mps 677 mmHg 63%
    20:00 +20°C° 0 mm 5 mps 678 mmHg 66%
    21:00 +19°C° 0 mm 5 mps 678 mmHg 69%
    22:00 +19°C° 0 mm 5 mps 678 mmHg 71%
    23:00 +17°C° 0 mm 5 mps 678 mmHg 72%

    Day after tomorrow, 27 September, Thursday

    Time Temperature Precipitation Wind Pressure Humidity
    00:00 +18°C° 0 mm 4 mps 678 mmHg 73%
    01:00 +17°C° 0 mm 4 mps 678 mmHg 73%
    02:00 +17°C° 0 mm 4 mps 678 mmHg 72%
    03:00 +17°C° 0 mm 3 mps 678 mmHg 72%
    04:00 +16°C° 0 mm 3 mps 678 mmHg 71%
    05:00 +16°C° 0 mm 3 mps 677 mmHg 70%
    06:00 +16°C° 0 mm 2 mps 677 mmHg 70%
    07:00 +17°C° 0 mm 2 mps 678 mmHg 63%
    08:00 +18°C° 0 mm 2 mps 678 mmHg 56%
    09:00 +19°C° 0 mm 2 mps 679 mmHg 49%
    10:00 +20°C° 0 mm 2 mps 679 mmHg 44%
    11:00 +21°C° 0 mm 2 mps 679 mmHg 39%
    12:00 +22°C° 0 mm 3 mps 679 mmHg 34%
    13:00 +22°C° 0 mm 3 mps 678 mmHg 31%
    14:00 +24°C° 0 mm 3 mps 678 mmHg 28%
    15:00 +24°C° 0 mm 3 mps 677 mmHg 25%
    16:00 +22°C° 0 mm 3 mps 677 mmHg 27%
    17:00 +22°C° 0 mm 3 mps 677 mmHg 28%
    18:00 +21°C° 0 mm 3 mps 677 mmHg 29%
    19:00 +20°C° 0 mm 2 mps 677 mmHg 32%
    20:00 +20°C° 0 mm 2 mps 677 mmHg 36%
    21:00 +19°C° 0 mm 2 mps 677 mmHg 39%
    22:00 +19°C° 0 mm 1 mps 676 mmHg 43%
    23:00 +19°C° 0 mm 1 mps 676 mmHg 47%

    28 September, Friday

    Time Temperature Precipitation Wind Pressure Humidity
    00:00 +18°C° 0 mm 1 mps 675 mmHg 51%
    01:00 +18°C° 0 mm 1 mps 675 mmHg 53%
    02:00 +18°C° 0 mm 1 mps 674 mmHg 55%
    03:00 +16°C° 0 mm 1 mps 674 mmHg 57%
    04:00 +16°C° 0 mm 1 mps 674 mmHg 58%
    05:00 +16°C° 0 mm 1 mps 674 mmHg 58%
    06:00 +16°C° 0 mm 1 mps 674 mmHg 59%
    07:00 +18°C° 0 mm 1 mps 674 mmHg 53%
    08:00 +18°C° 0 mm 2 mps 675 mmHg 48%
    09:00 +20°C° 0 mm 2 mps 675 mmHg 42%
    10:00 +21°C° 0 mm 2 mps 675 mmHg 38%
    11:00 +22°C° 0 mm 3 mps 675 mmHg 34%
    12:00 +24°C° 0 mm 3 mps 675 mmHg 29%
    13:00 +24°C° 0 mm 3 mps 674 mmHg 28%
    14:00 +25°C° 0 mm 3 mps 674 mmHg 26%
    15:00 +25°C° 0 mm 4 mps 673 mmHg 24%
    16:00 +24°C° 0 mm 3 mps 673 mmHg 26%
    17:00 +22°C° 0 mm 3 mps 673 mmHg 29%
    18:00 +21°C° 0 mm 3 mps 673 mmHg 31%
    19:00 +21°C° 0 mm 2 mps 673 mmHg 34%
    20:00 +21°C° 0 mm 1 mps 673 mmHg 38%
    21:00 +20°C° 0 mm 1 mps 673 mmHg 42%
    22:00 +20°C° 0 mm 1 mps 673 mmHg 44%
    23:00 +19°C° 0 mm 1 mps 672 mmHg 46%

    29 September, Saturday

    Time Temperature Precipitation Wind Pressure Humidity
    00:00 +16°C° 0 mm 0 mps 672 mmHg 48%
    01:00 +18°C° 0 mm 1 mps 672 mmHg 49%
    02:00 +18°C° 0 mm 1 mps 671 mmHg 49%
    03:00 +18°C° 0 mm 1 mps 671 mmHg 50%
    04:00 +18°C° 0 mm 1 mps 671 mmHg 50%
    05:00 +18°C° 0 mm 1 mps 671 mmHg 51%
    06:00 +17°C° 0 mm 2 mps 671 mmHg 52%
    07:00 +18°C° 0 mm 2 mps 672 mmHg 47%
    08:00 +20°C° 0 mm 2 mps 672 mmHg 42%
    09:00 +22°C° 0 mm 3 mps 673 mmHg 37%
    10:00 +24°C° 0 mm 3 mps 673 mmHg 34%
    11:00 +25°C° 0 mm 3 mps 673 mmHg 31%
    12:00 +26°C° 0 mm 4 mps 673 mmHg 29%
    13:00 +26°C° 0 mm 3 mps 673 mmHg 28%
    14:00 +26°C° 0 mm 3 mps 672 mmHg 28%
    15:00 +26°C° 0 mm 3 mps 672 mmHg 27%
    16:00 +25°C° 0 mm 3 mps 672 mmHg 30%
    17:00 +25°C° 0 mm 2 mps 672 mmHg 32%
    18:00 +24°C° 0 mm 2 mps 672 mmHg 35%
    19:00 +23°C° 0 mm 2 mps 672 mmHg 38%
    20:00 +22°C° 0 mm 1 mps 672 mmHg 40%
    21:00 +22°C° 0 mm 1 mps 672 mmHg 42%
    22:00 +21°C° 0 mm 1 mps 672 mmHg 43%
    23:00 +21°C° 0 mm 1 mps 672 mmHg 43%

    30 September, Sunday

    Time Temperature Precipitation Wind Pressure Humidity
    00:00 +20°C° 0 mm 1 mps 672 mmHg 44%
    01:00 +20°C° 0 mm 1 mps 671 mmHg 44%
    02:00 +19°C° 0 mm 2 mps 671 mmHg 44%
    03:00 +19°C° 0 mm 2 mps 671 mmHg 43%
    04:00 +18°C° 0 mm 2 mps 671 mmHg 43%
    05:00 +18°C° 0 mm 2 mps 671 mmHg 42%
    06:00 +18°C° 0 mm 2 mps 671 mmHg 42%
    07:00 +20°C° 0 mm 2 mps 672 mmHg 37%
    08:00 +22°C° 0 mm 3 mps 672 mmHg 33%
    09:00 +25°C° 0 mm 3 mps 673 mmHg 28%
    10:00 +25°C° 0 mm 3 mps 673 mmHg 27%
    11:00 +26°C° 0 mm 4 mps 673 mmHg 26%
    12:00 +27°C° 0 mm 4 mps 673 mmHg 26%
    13:00 +27°C° 0 mm 4 mps 673 mmHg 25%
    14:00 +27°C° 0 mm 4 mps 672 mmHg 25%
    15:00 +27°C° 0 mm 4 mps 672 mmHg 25%
    16:00 +26°C° 0 mm 4 mps 672 mmHg 27%
    17:00 +26°C° 0 mm 3 mps 672 mmHg 29%
    18:00 +25°C° 0 mm 2 mps 672 mmHg 31%
    19:00 +24°C° 0 mm 2 mps 672 mmHg 34%
    20:00 +23°C° 0 mm 1 mps 672 mmHg 36%
    21:00 +22°C° 0 mm 1 mps 672 mmHg 38%
    22:00 +22°C° 0 mm 1 mps 672 mmHg 39%
    23:00 +22°C° 0 mm 1 mps 672 mmHg 41%
    Show more